Regional Weather Roundup
Issued by NWS

Home | Current Version | Previous Version | Graphics & Text | Print | Product List | Glossary On
Versions: 1 2 3 4 5 6 7 8 9 10 11 12 13 14 15 16 17 18 19 20 21 22 23 24 25 26 27 28 29 30 31 32 33 34 35 36 37 38 39 40 41 42 43 44 45 46 47 48 49 50
000
ASUS43 KMKX 041500
RWRWI

WISCONSIN REGIONAL WEATHER ROUNDUP
NATIONAL WEATHER SERVICE MILWAUKEE/SULLIVAN WI
1000 AM CDT FRI SEP 04 2015

NOTE: "FAIR" INDICATES FEW OR NO CLOUDS BELOW 12,000 FEET WITH NO
SIGNIFICANT WEATHER AND/OR OBSTRUCTIONS TO VISIBILITY.

WIZ001-002-006>008-014>016-023>028-041600-
NORTHWEST WISCONSIN

CITY           SKY/WX    TMP DP  RH WIND       PRES   REMARKS
SUPERIOR ARPT  PTSUNNY   62  60  91 E7        30.00F
ASHLAND        SUNNY     70  65  84 NE5       30.02S
HAYWARD        MOSUNNY   72  62  71 SE12      30.03S
SIREN          SUNNY     75  65  69 SE14G21   29.97S
CUMBERLAND     CLOUDY    68  63  83 SE10      30.01S
RICE LAKE      CLOUDY    71  63  78 SE13      30.03R
CHETEK         CLOUDY    70  65  84 SE8G16    30.02S
LADYSMITH      SUNNY     71  65  79 SE7       30.05S
EAU CLAIRE     NOT AVBL
MENOMONIE      SUNNY     75  67  76 SE10G16   30.00S
NEW RICHMOND   SUNNY     74  65  73 SE9G17    29.98R
OSCEOLA        SUNNY     75  67  76 SE16      29.99S
$$

WIZ003>005-009-010-017-018-041600-
NORTH CENTRAL WISCONSIN

CITY           SKY/WX    TMP DP  RH WIND       PRES   REMARKS
MANITOWISH WTR SUNNY     68  64  86 SE7       30.07S
ARBOR VITAE    SUNNY     72  65  80 E9        30.07S
WOODRUFF       SUNNY     72  65  80 E9        30.07S
RHINELANDER    SUNNY     72  63  73 E12       30.08F
EAGLE RIVER    SUNNY     71  61  71 SE5       30.09S
LAND O LAKES   SUNNY     72  62  71 SE8       30.10S
PHILLIPS       SUNNY     69  63  82 SE7       30.05S
TOMAHAWK       SUNNY     67  66  97 E3        30.07S
MEDFORD        MOSUNNY   68  64  88 SE8       30.06R
MERRILL        SUNNY     68  65  92 SE6       30.07S
$$

WIZ029-030-035-036-043>047-041600-
CENTRAL WISCONSIN

CITY           SKY/WX    TMP DP  RH WIND       PRES   REMARKS
WAUSAU         CLOUDY    68  64  87 SE8       30.05R
MOSINEE        CLOUDY    64  64 100 SE7       30.08R FOG
MARSHFIELD     CLOUDY    67  62  84 E7        30.07R HAZE
STEVENS POINT  CLOUDY    64  63  99 E3        30.07R FOG
WAUPACA        CLOUDY    67  67  97 CALM      30.06R FOG
WAUTOMA        NOT AVBL
WISC RAPIDS    CLOUDY    67  63  87 E8        30.07R
CAMP DOUGLAS   NOT AVBL
$$

WIZ011>013-019>022-031-037>040-048>050-041600-
NORTHEAST WISCONSIN

CITY           SKY/WX    TMP DP  RH WIND       PRES   REMARKS
ANTIGO         SUNNY     70  64  82 E7        30.08S
SHAWANO        NOT AVBL
OCONTO         MOSUNNY   68  68  99 N3        30.04S
STURGEON BAY   PTSUNNY   70  64  83 N3        30.07R
GREEN BAY      CLOUDY    70  65  84 VRB5      30.05R
MANITOWOC      NOT AVBL
APPLETON       CLOUDY    66  66 100 VRB6      30.04R
CLINTONVILLE   CLOUDY    66  64  94 E7        30.05R
OSHKOSH        CLOUDY    69  64  84 NE6       30.05R
$$

WIZ032>034-041-042-053>061-041600-
SOUTHWEST WISCONSIN

CITY           SKY/WX    TMP DP  RH WIND       PRES   REMARKS
LA CROSSE      PTSUNNY   78  68  71 S8        30.00R HX  80
SPARTA         CLOUDY    73  63  70 E6        30.03S
VIROQUA          N/A     74  67  79 SE7       30.03S
BOSCOBEL       SUNNY     79  68  69 S5        30.01S HX  81
PRAIRIE DU CHI SUNNY     76  67  74 E6        30.01R
PLATTEVILLE    SUNNY     75  70  85 SE3       30.03R
$$

WIZ056-057-062-063-064-067-068-041600-
SOUTH CENTRAL WISCONSIN

CITY           SKY/WX    TMP DP  RH WIND       PRES   REMARKS
REEDSBURG      CLOUDY    70  66  87 NE5       30.04R
BARABOO/DELLS  CLOUDY    69  64  84 E8        30.05R
LONE ROCK      NOT AVBL
MINERAL POINT  SUNNY     75  68  78 SE6       30.04R
MADISON        PTSUNNY   72  66  81 E6        30.04S HAZE
MIDDLETON      CLOUDY    74  68  81 E5        30.05R
WATERTOWN      CLOUDY    65  65 100 NE3       30.05R FOG
MONROE         SUNNY     73  68  83 E6        30.04R
JANESVILLE     PTSUNNY   75  66  73 E7        30.04R
$$

WIZ051-052-058>065-066-070>072-041600-
SOUTHEAST WISCONSIN

CITY           SKY/WX    TMP DP  RH WIND       PRES   REMARKS
MILWAUKEE      PTSUNNY   71  64  78 NE9       30.04R
WAUKESHA       CLOUDY    64  63  94 CALM      30.06R
MILWAUKEE/TIMM NOT AVBL
RACINE         CLOUDY    71  64  78 N7        30.06R
BURLINGTON     CLOUDY    68  64  86 CALM      30.05R
KENOSHA        CLOUDY    69  65  86 NE5       30.05S FOG
FOND DU LAC    CLOUDY    70  65  84 NE6       30.05R
SHEBOYGAN      CLOUDY    69  66  90 NE8       30.04R
WEST BEND      CLOUDY    68  63  83 CALM      30.05R
JUNEAU         CLOUDY    67  64  90 CALM      30.06R
$$

LSZ147-162-041600-
LAKE SUPERIOR

STATION/POSITION TIME  TEMP    WIND        PRES    WAVE
                       AIR SEA DIR/SP/G            HT/PER
                 (UTC) (F)     (DEG/KT/KT) (MB)    (FT/S)
W MID LAKE BUOY  1350   60 56   90/  8/  8 1017.4F   0
DEVILS ISLAND    1400   61      80/  6/  6 1016.9F
PORT WING        1400   54      40/  9/ 10 1016.3F
SAXON HARBOR     1400   64        CALM     1016.3F
$$

LMZ867-665-643>646-041600-
LAKE MICHIGAN

STATION/POSITION TIME  TEMP    WIND        PRES    WAVE
                       AIR SEA DIR/SP/G            HT/PER
                 (UTC) (F)     (DEG/KT/KT) (MB)    (FT/S)
CHAMBERS ISLAND  1400   69     360/  6/  6 1017.3R
S GREEN BAY BUOY 1400   65 66  340/  4/  6 1018.6R
N MID LAKE BUOY  1350   67 66  100/ 12/ 14 1016.1F   2/ 4
NORTHPORT PIER   1400   68     100/  5/  7 1016.9R
SISTER BAY       1411   75     100/ 10/ 14   N/A
ALGOMA LAKESHORE 1314          330/  2/  5   N/A
KEWAUNEE LAKESHO 1400   67      20/  4/  9 1016.0R
SHEBOYGAN LAKESH 1400   61      30/ 10/ 11 1016.9R
PORT WASHINGTON  1400   66      50/  3/  3 1017.3R
ATWATER BUOY     1400   65     270/  4/  4 1018.3R
MILWAUKEE LAKESH 1410   68     360/  6/  9   N/A
S MID LAKE BUOY  1350   67 71  290/  6/  8 1015.9R   1/ 4
KENOSHA   LAKESH 1400   62      10/  2/  6 1016.9R
$$

TC  - TEMPERATURE IN CELSIUS
VSB - VISIBILITY IN STATUTE MILES
WCI - WIND CHILL INDEX
HX  - HEAT INDEX



USA.gov is the U.S. government's official web portal to all federal, state and local government web resources and services.